Погода в Сан-Педро-де-Атакама

Чили     22°54′34″S   68°12′04″W
темп.,
°C
ветер,
м/с
пор.,
м/с
влажн.,
%
обл.,
%
осадки,
мм/ч
давл.,
гПа
погр.,
м
3 августа, вт
вт323:00+10сз113756 0.0 101910
02:00+9сз11373 0.0 101910
05:00+7ююз11435 0.0 101910
08:00+10зсз11360 0.0 102010
11:00+17ю21220 0.0 1018678
14:00+21юв441635 0.0 10121804
17:00+20зсз441762 0.1 10111576
20:00+14сз33333 0.2 101514
4 августа, ср
ср423:00+11с0140100 0.0 101710
02:00+10з1142100 0.0 101710
05:00+9юв00460 0.0 101710
08:00+10с00400 0.0 102010
11:00+17юв23250 0.0 10171056
14:00+22зсз8101236 0.0 10113714
17:00+19зсз1112160 0.0 10122118
20:00+12всв12330 0.0 101812
5 августа, чт
чт523:00+10зсз11400 0.0 101910
02:00+8з11460 0.0 102010
05:00+7с22460 0.0 102010
08:00+9ссз11380 0.0 102211
11:00+16ю25220 0.0 10201644
14:00+21зсз8880 0.0 10143623
17:00+19зсз8780 0.0 10152283
20:00+11ссз22190 0.0 102011
6 августа, пт
пт623:00+9ссз11220 0.0 102110
02:00+7зсз01250 0.0 102210
05:00+5сз11260 0.0 102110
08:00+7ююв11220 0.0 102310
11:00+15ю11115 0.0 1021614
14:00+19юв32519 0.0 10161114
17:00+20ююв2245 0.0 10141061
20:00+13ссв2370 0.0 101611
7 августа, сб
сб723:00+9ссз11115 0.0 101810
02:00+7с11125 0.0 101810
05:00+5сз01285 0.0 101810
08:00+8вюв11105 0.0 102010
11:00+17ю2155 0.0 1019511
14:00+21юв2135 0.0 1013943
17:00+22ююв3227 0.0 1011706
20:00+13ссв2280 0.0 101612